Weather History for KBJC - March, 2014

Change the Weather History Date:

Wednesday, March 26, 2014

  Actual Average Record
Temperature  
Mean Temperature 50 °F -  
Max Temperature 66 °F 53 °F 77 °F (2004)
Min Temperature 35 °F 32 °F 11 °F (1985)
Degree Days  
Heating Degree Days 14    
Moisture  
Dew Point 21 °F    
Average Humidity 39    
Maximum Humidity 66    
Minimum Humidity 15    
Precipitation  
Precipitation 0.00 in - - ()
Sea Level Pressure  
Sea Level Pressure 29.58 in    
Wind  
Wind Speed 5 mph (SW)    
Max Wind Speed 43 mph    
Max Gust Speed 54 mph    
Visibility 10 miles    
Events      
Averages and records for this station are not official NWS values.
T = Trace of Precipitation, MM = Missing Value Source: NWS Daily Summary

Daily Weather History Graph

Daily Weather History Graph

Search for Another Location

Airport or City:

Trip Planner

Search our weather history database for the weather conditions in past years. The results will help you decide how hot, cold, wet, or windy it might be!

Date:

Astronomy

Mar. 26, 2014 Rise Set
Actual Time 6:54 AM MDT 7:18 PM MDT
Civil Twilight 6:26 AM MDT 7:45 PM MDT
Nautical Twilight 5:55 AM MDT 8:17 PM MDT
Astronomical Twilight 5:22 AM MDT 8:50 PM MDT
Moon 4:04 AM MDT (3/26) 3:00 PM MDT (3/26)
Length of Visible Light 13h 18m
Length of Day
12h 24m
Waning Crescent, 21% of the Moon is Illuminated
Mar 26
Waning Crescent
Mar 30
New
Apr 7
First Quarter
Apr 15
Full
Apr 22
Last Quarter

Hourly Weather History & Observations

Time (MDT) Temp. Windchill Dew Point Humidity Pressure Visibility Wind Dir Wind Speed Gust Speed Precip Events Conditions
12:15 AM 42.8 °F - 23.0 °F 46% 29.75 in 10.0 mi Calm Calm - N/A   Clear
12:35 AM 42.8 °F - 23.0 °F 46% 29.73 in 10.0 mi Calm Calm - N/A   Clear
12:55 AM 41.0 °F - 23.0 °F 49% 29.73 in 10.0 mi Calm Calm - N/A   Clear
1:15 AM 42.8 °F - 23.0 °F 46% 29.72 in 10.0 mi Calm Calm - N/A   Clear
1:35 AM 42.8 °F 41.1 °F 23.0 °F 46% 29.72 in 10.0 mi SW 3.5 mph - N/A   Clear
1:53 AM 35.6 °F 31.7 °F 23.0 °F 60% 29.70 in 10.0 mi West 4.6 mph - N/A   Clear
2:15 AM 37.4 °F 34.9 °F 23.0 °F 56% 29.70 in 10.0 mi South 3.5 mph - N/A   Clear
2:35 AM 37.4 °F 34.9 °F 23.0 °F 56% 29.69 in 10.0 mi SSE 3.5 mph - N/A   Clear
2:55 AM 37.4 °F 33.8 °F 23.0 °F 56% 29.68 in 10.0 mi South 4.6 mph - N/A   Clear
3:15 AM 37.4 °F 33.8 °F 23.0 °F 56% 29.67 in 10.0 mi SSW 4.6 mph - N/A   Clear
3:35 AM 39.2 °F 37.0 °F 19.4 °F 45% 29.66 in 10.0 mi South 3.5 mph - N/A   Clear
3:55 AM 41.0 °F - 17.6 °F 39% 29.66 in 10.0 mi Calm Calm - N/A   Clear
4:15 AM 41.0 °F 39.0 °F 14.0 °F 33% 29.65 in 10.0 mi SW 3.5 mph - N/A   Clear
4:35 AM 41.0 °F 37.1 °F 14.0 °F 33% 29.65 in 10.0 mi SSW 5.8 mph - N/A   Clear
4:55 AM 42.8 °F 39.3 °F 14.0 °F 31% 29.65 in 10.0 mi WSW 5.8 mph - N/A   Clear
5:15 AM 41.0 °F 39.0 °F 12.2 °F 31% 29.63 in 10.0 mi SW 3.5 mph - N/A   Clear
5:35 AM 41.0 °F 35.2 °F 14.0 °F 33% 29.64 in 10.0 mi WSW 9.2 mph - N/A   Clear
5:46 AM 41.0 °F 36.4 °F 12.2 °F 31% 29.69 in 15.0 mi West 6.9 mph - N/A   Partly Cloudy
5:55 AM 41.0 °F 35.2 °F 12.2 °F 31% 29.63 in 10.0 mi West 9.2 mph - N/A   Clear
6:47 AM 39.2 °F 35.9 °F 14.0 °F 36% 29.63 in 30.0 mi South 4.6 mph - N/A   Scattered Clouds
7:47 AM 44.6 °F 40.7 °F 15.8 °F 31% 29.62 in 70.0 mi WSW 6.9 mph - N/A   Mostly Cloudy
8:50 AM 48.2 °F - 17.6 °F 30% 29.62 in 70.0 mi SW 8.1 mph - N/A   Mostly Cloudy
9:48 AM 57.2 °F - 14.0 °F 18% 29.60 in 70.0 mi Calm Calm - N/A   Mostly Cloudy
10:55 AM 59.0 °F - 19.4 °F 22% 29.58 in 70.0 mi SE 5.8 mph - N/A   Mostly Cloudy
11:46 AM 62.6 °F - 17.6 °F 18% 29.55 in 70.0 mi SE 5.8 mph - N/A   Mostly Cloudy
12:11 PM 66.2 °F - 44.6 °F 46% 29.53 in 70.0 mi SSW 6.9 mph - N/A   Mostly Cloudy
12:47 PM 64.4 °F - 17.6 °F 16% 29.50 in 70.0 mi North 12.7 mph - N/A   Mostly Cloudy
1:58 PM 64.4 °F - 17.6 °F 16% 29.47 in 50.0 mi SE 5.8 mph - N/A   Mostly Cloudy
2:45 PM 60.8 °F - 21.2 °F 22% 29.44 in 40.0 mi WSW 18.4 mph - N/A   Mostly Cloudy
3:51 PM 66.2 °F - 17.6 °F 15% 29.41 in 40.0 mi SW 5.8 mph - N/A   Mostly Cloudy
4:50 PM 62.6 °F - 17.6 °F 18% 29.39 in 40.0 mi WSW 15.0 mph - N/A   Mostly Cloudy
5:50 PM 59.0 °F - 23.0 °F 25% 29.38 in 40.0 mi West 17.3 mph - N/A   Mostly Cloudy
6:58 PM 55.4 °F - 24.8 °F 31% 29.37 in 40.0 mi WNW 12.7 mph - N/A   Mostly Cloudy
7:55 PM 46.4 °F 35.6 °F 30.2 °F 53% 29.41 in 40.0 mi WSW 42.6 mph 54.1 mph N/A   Mostly Cloudy
8:50 PM 46.4 °F 42.9 °F 30.2 °F 53% 29.39 in 30.0 mi SW 6.9 mph - N/A   Mostly Cloudy
9:45 PM 44.6 °F 41.4 °F 32.0 °F 61% 29.45 in 30.0 mi WSW 5.8 mph 23.0 mph N/A   Mostly Cloudy
11:15 PM 42.8 °F 38.0 °F 32.0 °F 66% 29.41 in 10.0 mi SW 8.1 mph - N/A   Clear
11:35 PM 42.8 °F 38.0 °F 32.0 °F 66% 29.41 in 10.0 mi WSW 8.1 mph - N/A   Clear
11:55 PM 42.8 °F 37.5 °F 32.0 °F 66% 29.41 in 10.0 mi West 9.2 mph - N/A   Clear